Regional Weather Roundup
Issued by NWS Green Bay, WI

Home | Current Version | Previous Version | Text Only | Print | Product List | Glossary On
Versions: 1 2 3 4 5 6 7 8 9 10 11 12 13 14 15 16 17 18 19 20 21 22 23 24 25 26 27 28 29 30 31 32 33 34 35 36 37 38 39 40 41 42 43 44 45 46 47 48 49 50
000
ASUS43 KGRB 230610
RWRGRB

NORTH-CENTRAL AND NORTHEAST WISCONSIN REGIONAL WEATHER ROUNDUP
NATIONAL WEATHER SERVICE GREEN BAY WI
100 AM CDT TUE SEP 23 2014

WIZ005-009-010>012-018-019-230700-
NORTH CENTRAL WISCONSIN

CITY           SKY/WX    TMP DP  RH WIND       PRES   REMARKS
IRONWOOD       CLEAR     52  48  87 W7        30.14S
MANITOWISH WTR CLEAR     45  45 100 CALM      30.19S
ARBOR VITAE    CLEAR     47  45  92 CALM      30.20R
EAGLE RIVER    CLEAR     46  46 100 W5        30.19R FOG
LAND O LAKES   CLEAR     41  41 100 CALM      30.20R
RHINELANDER    CLEAR     48  47  96 W6        30.21R
PHILLIPS       CLEAR     45  44  98 CALM      30.20S
ANTIGO         CLEAR     50  48  93 W6        30.21S
TOMAHAWK       CLEAR     43  42  97 CALM      30.21S
MERRILL        FOG       41  41 100 CALM      30.21S VSB 1/2
$$

WIZ013-073-230700-
NORTHEAST WISCONSIN

CITY           SKY/WX    TMP DP  RH WIND       PRES   REMARKS
IRON MOUNTAIN  CLEAR     49  46  90 CALM      30.15S
MARINETTE      CLEAR     54  46  76 W3        30.17S
OCONTO         CLEAR     48  48 100 W3        30.18S
$$

WIZ017-030-035>037-045-230700-
CENTRAL WISCONSIN

CITY           SKY/WX    TMP DP  RH WIND       PRES   REMARKS
MEDFORD        FOG       45  45  99 CALM      30.21S VSB 1/2
WAUSAU         CLEAR     49  48  97 NE3       30.20S
MOSINEE        CLEAR     46  46 100 SW3       30.23S
MARSHFIELD     FOG       48  46  93 CALM      30.21S VSB 3/4
WISC RAPIDS    CLEAR     47  45  93 CALM      30.23S FOG
STEVENS POINT  CLEAR     44  43  97 CALM      30.22S
WAUPACA        CLEAR     49  48  95 CALM      30.22S
SHAWANO        CLEAR     51  49  92 CALM      30.20S
CLINTONVILLE   CLEAR     46  46 100 CALM      30.21S
$$

WIZ038-039-048-051-230700-
FOX VALLEY

CITY           SKY/WX    TMP DP  RH WIND       PRES   REMARKS
NWS GREEN BAY  CLEAR     49  47  93 CALM      30.21R
APPLETON       CLEAR     50  48  93 W5        30.22R
OSHKOSH        CLEAR     54  49  83 SW3       30.22S
FOND DU LAC    CLEAR     50  47  89 SW5       30.23S
$$

WIZ022-050-052-230700-
EAST CENTRAL WISCONSIN

CITY           SKY/WX    TMP DP  RH WIND       PRES   REMARKS
STURGEON BAY   CLEAR     55  48  76 W5        30.20R
MANITOWOC      CLEAR     52  50  93 CALM      30.21F
SHEBOYGAN      CLEAR     47  46  97 S5        30.22S
$$

LMZ563-521-522-541>543-230700-
LAKESHORE

STATION/POSITION TIME  TEMP    WIND        PRES    VSBY  WAVE
                       AIR SEA DIR/SP/G                  HT/PER
                 (UTC) (F)     (DEG/KT/KT) (MB)    (MI)  (FT/S)
SHEBOYGAN LKSHOR 0600   56 53  240/  8/  9 1023.7R
KEWAUNEE LKSHORE 0600   51     310/  4/  5 1021.6R
NORTHPORT PIER   0600   59     250/  5/  8 1021.3S
N MID LAKE BUOY  0600   58 57  240/ 12/ 14 1021.5R         2/ 5
S GREEN BAY BUOY 0600   59     VRB 10/ 12  1023.2R
CHAMBERS ISLAND  0600   56     210/  5/  9 1021.7S
MENOMINEE LKSHOR 0600   56     260/  8/ 11 1022.2R
$$


USA.gov is the U.S. government's official web portal to all federal, state and local government web resources and services.